#timestamp,LO_Frequency,Hit,StdDev 
1576029615.0,286047001.2,N
1576029615.9,286047001.2,N
1576029635.8,286046998.8,N
1576029655.6,286047000.5,N
1576029675.5,286047001.1,N
1576029695.3,286046998.4,N
1576029715.1,286047000.3,N
1576029735.9,286047001.1,N
1576029755.7,286046998.1,N
1576029775.5,286046998.5,N
1576029795.4,286047000.7,N
1576029815.2,286047000.2,N
1576029835.1,286047000.2,N
1576029836.0,286047000.2,N
1576029855.8,286046999.4,N
1576029875.6,286046999.0,N
1576029895.5,286046997.2,N
1576029915.3,286046997.0,N
1576029935.1,286046997.3,N
1576029955.9,286046997.0,N
1576029975.7,286046997.6,N
1576029995.6,286046999.1,N
1576030015.4,286046999.0,N
1576030035.2,286046997.1,N
1576030055.1,286046997.4,N
1576030056.0,286046997.4,N
1576030075.8,286046997.2,N
1576030095.7,286046997.5,N
1576030115.5,286046997.2,N
1576030135.3,286046997.4,N
1576030155.2,286046997.4,N
1576030175.9,286046997.8,N
1576030195.7,286046997.8,N
1576030215.6,286046994.9,Y
1576030235.4,286046996.9,P
1576030255.3,286046998.8,N
1576030275.1,286046999.2,N
1576030276.0,286046999.2,N
1576030295.8,286046999.4,N
1576030315.7,286046999.4,N
1576030335.5,286046996.5,Y
1576030355.4,286046998.2,P
1576030375.2,286046999.3,N
1576030395.0,286046998.5,P
1576030395.9,286046998.5,Y
1576030415.8,286047000.4,P
1576030435.6,286046998.4,N
1576030455.4,286046998.9,N
1576030475.3,286046998.7,N
1576030495.1,286046998.9,N
1576030515.9,286046998.7,N
1576030535.7,286046998.8,N
1576030555.5,286046998.6,N
1576030575.4,286046998.8,N
1576030595.2,286047001.0,N
1576030615.0,286046999.7,N
1576030616.0,286046999.7,N
1576030635.8,286047002.8,Y
1576030655.6,286047001.4,P
1576030675.5,286047003.4,P
1576030695.3,286047003.8,N
1576030715.1,286047003.5,N
1576030735.9,286047004.4,N
1576030755.7,286047001.5,N
1576030775.6,286047004.3,N
1576030795.4,286047001.7,N
1576030815.2,286047003.7,N
1576030835.1,286047004.3,N
1576030836.0,286047004.3,N
1576030855.8,286047004.1,N
1576030875.6,286047003.2,N
1576030895.5,286047003.5,N
1576030915.3,286047003.1,N
1576030935.2,286047003.4,N
1576030955.9,286047005.2,Y
1576030975.7,286047002.7,P
1576030995.6,286047002.5,P
1576031015.4,286047002.9,P
1576031035.3,286047002.9,Y
1576031055.1,286047002.5,P
1576031056.0,286047002.5,P
1576031075.8,286047004.1,P
1576031095.7,286047001.7,N
1576031115.5,286047003.8,Y
1576031135.4,286047001.2,P
1576031155.2,286047000.5,N
1576031175.0,286047000.3,N
1576031175.9,286047000.3,N
1576031195.8,286047000.5,N
1576031215.6,286047002.0,N
1576031235.4,286047001.6,N
1576031255.3,286047003.9,Y
1576031275.1,286047000.8,P
1576031295.9,286046998.6,P
1576031315.7,286047002.8,N
1576031335.5,286047000.5,N
1576031355.4,286047002.2,N
1576031375.2,286047002.6,N
1576031395.1,286047000.3,N
1576031396.0,286047000.3,N
1576031415.8,286047000.6,N
1576031435.6,286047000.5,N
1576031455.5,286047000.0,N
1576031475.3,286047000.1,N
1576031495.2,286047000.9,N
1576031515.9,286047001.7,N
1576031535.7,286047002.5,N
1576031555.6,286047002.7,N
1576031575.4,286047002.4,N
1576031595.2,286047002.7,N
1576031615.1,286047002.8,N
1576031616.0,286047002.8,N
1576031635.8,286047000.1,N
1576031655.7,286046999.7,N
1576031675.5,286046999.8,N
1576031695.3,286047002.1,N
1576031715.2,286047000.8,N
1576031735.0,286047001.2,N
1576031735.9,286047001.2,N
1576031755.8,286047000.9,N
1576031775.6,286047000.8,N
1576031795.4,286047001.2,N
1576031815.3,286047000.8,N
1576031835.1,286047002.4,N
1576031855.8,286047000.4,N
1576031875.7,286046999.9,N
1576031895.5,286047000.9,N
1576031915.4,286047002.6,N
1576031935.2,286047002.2,N
1576031955.0,286047001.5,N
1576031955.9,286047001.5,N
1576031975.8,286047002.5,N
1576031995.6,286047000.1,N
1576032015.4,286047001.0,N
1576032035.3,286046999.9,N
1576032055.1,286047001.0,N
1576032075.9,286047000.0,N
1576032095.7,286046999.8,N
1576032115.5,286047002.8,N
1576032135.4,286047000.8,N
1576032155.2,286047000.6,N
1576032175.0,286046998.7,N
1576032176.0,286046998.7,N
1576032195.8,286046998.8,N
1576032215.6,286046998.1,N
1576032235.5,286046999.3,N
1576032255.3,286046998.4,N
1576032275.1,286046998.8,N
1576032295.9,286046998.1,N
1576032315.7,286047001.0,N
1576032335.6,286046998.1,N
1576032355.4,286046999.8,N
1576032375.2,286047002.1,N
1576032395.1,286047002.0,N
1576032396.0,286047002.0,N
1576032415.8,286047002.7,N
1576032435.6,286047002.5,N
1576032455.5,286047002.4,N
1576032475.3,286047002.0,N
1576032495.2,286047001.5,N
1576032515.9,286047003.3,N
1576032535.7,286047003.7,N
1576032555.6,286047004.4,N
1576032575.4,286047002.1,N
1576032595.2,286047002.7,N
1576032615.1,286046999.8,N
1576032616.0,286046999.8,N
1576032635.8,286047000.3,N
1576032655.7,286047000.5,N
1576032675.5,286046999.7,N
1576032695.3,286047002.4,N
1576032715.2,286046999.9,N
1576032735.0,286047002.0,N
1576032735.9,286047002.0,N
1576032755.7,286047001.8,N
1576032775.6,286047003.1,N
1576032795.4,286047004.1,N
1576032815.3,286047003.8,N
1576032835.1,286047003.6,N
1576032855.8,286047003.8,N
1576032875.7,286047003.0,N
1576032895.5,286047005.5,Y
1576032915.4,286046999.8,P
1576032935.2,286047000.9,N
1576032955.0,286047000.8,N
1576032955.9,286047000.8,N
1576032975.8,286047000.7,N
1576032995.6,286046996.5,Y
1576033015.4,286046996.7,P
1576033035.3,286046996.7,N
1576033055.1,286046999.6,N
1576033075.9,286046999.3,N
1576033095.7,286047001.0,N
1576033115.5,286046998.7,N
1576033135.4,286046999.1,N
1576033155.2,286046998.4,N
1576033175.1,286046996.8,N
1576033176.0,286046996.8,N
1576033195.8,286046998.0,N
